Location: L�Aub�pine
(47.6976°N, 3.9351°E)
Time: 14:32:03
(UTC+00:00)

Daily predictions for brighter satellites

Satellite Brightness Start Highest point End
(mag) Time Altitude Azimuth Time Altitude Azimuth Time Altitude Azimuth
CSL-04 Rocket 4.0 18:32:51 10° S 18:38:09 73° WSW 18:43:27 10° NNW
Cosmos 2333 Rocket 3.8 18:34:02 10° WSW 18:39:21 40° NW 18:44:41 10° NNE
STARLINK-1230 3.8 18:37:56 10° SW 18:41:53 51° SE 18:45:51 10° ENE
Resurs 01 Rocket 3.5 18:40:04 10° E 18:42:21 14° ENE 18:44:39 10° NNE
STARLINK-1096 3.6 18:39:09 10° WNW 18:43:12 86° SW 18:47:16 10° ESE
STARLINK-1144 4.3 18:39:32 10° WNW 18:43:33 46° NNE 18:47:33 10° E
STARLINK-1233 2.8 18:41:22 10° WSW 18:44:30 82° SSE 18:47:39 10° ENE
STARLINK-1212 2.8 18:41:51 10° WSW 18:44:57 82° SSE 18:48:06 10° ENE
STARLINK-1105 2.8 18:42:16 10° WSW 18:45:24 83° SSE 18:48:33 10° ENE
STARLINK-1206 2.8 18:42:46 10° WSW 18:45:53 83° SSE 18:49:01 10° ENE
FREGAT/IRIS 3.2 18:43:47 10° SE 18:46:14 31° ENE 18:48:42 10° N
STARLINK-1247 2.8 18:43:12 10° WSW 18:46:19 84° SSE 18:49:27 10° ENE
STARLINK-1227 2.8 18:43:37 10° WSW 18:46:45 85° SSE 18:49:54 10° ENE
STARLINK-1243 3.7 18:42:52 10° SW 18:46:52 56° SE 18:50:52 10° ENE
Cosmos 1302 Rocket 4.4 18:42:00 10° NNW 18:47:06 47° ENE 18:52:10 10° SE
STARLINK-1218 2.8 18:44:07 10° WSW 18:47:13 85° SSE 18:50:21 10° ENE
Abrixas rocket 4.1 18:46:19 10° SSE 18:47:36 12° SE 18:48:52 10° ESE
STARLINK-1226 2.8 18:44:33 10° WSW 18:47:40 86° SSE 18:50:48 10° ENE
STARLINK-1079 3.6 18:43:47 10° WNW 18:47:50 81° SSW 18:51:52 10° ESE
STARLINK-1254 2.8 18:44:58 10° WSW 18:48:06 86° SSE 18:51:15 10° ENE
STARLINK-1103 4.3 18:44:30 10° WNW 18:48:32 47° NNE 18:52:33 10° E
STARLINK-1215 2.8 18:45:27 10° WSW 18:48:35 87° SSE 18:51:42 10° ENE
STARLINK-1231 2.8 18:45:53 10° WSW 18:49:01 88° SSE 18:52:08 10° ENE
Cosmos 304 Rocket 3.8 18:45:03 10° NNW 18:49:52 87° ENE 18:54:39 10° SSE
STARLINK-1232 2.8 18:46:48 10° WSW 18:49:55 89° SSE 18:53:03 10° ENE
STARLINK-1217 2.8 18:47:15 10° WSW 18:50:22 89° SE 18:53:31 10° ENE
Cosmos 1709 Rocket 4.2 18:44:21 10° N 18:50:26 53° ENE 18:56:25 10° SSE
Cosmos 1953 4.1 18:48:42 10° ESE 18:50:40 14° E 18:52:39 10° NE
STARLINK-1208 2.9 18:47:40 10° WSW 18:50:48 90° WSW 18:53:58 10° ENE
SeaSat 1 3.5 18:46:27 10° NNE 18:51:14 52° NW 18:56:01 10° SW
STARLINK-1229 2.8 18:48:09 10° WSW 18:51:16 89° NW 18:54:24 10° ENE
STARLINK-1236 3.7 18:47:26 10° SW 18:51:27 60° SSE 18:55:28 10° ENE
STARLINK-1271 2.9 18:48:36 10° WSW 18:51:43 89° NW 18:54:51 10° ENE
STARLINK-1270 2.8 18:49:04 10° WSW 18:52:11 88° NNW 18:55:19 10° ENE
STARLINK-1116 3.7 18:48:12 10° WNW 18:52:15 77° SSW 18:56:17 10° SE
STARLINK-1154 2.9 18:49:31 10° WSW 18:52:38 88° NNW 18:55:46 10° ENE
STARLINK-1197 2.9 18:50:25 10° WSW 18:53:32 86° NNW 18:56:40 10° ENE
STARLINK-1101 4.2 18:49:30 10° WNW 18:53:32 49° NNE 18:57:32 10° E
STARLINK-1189 2.9 18:50:52 10° WSW 18:53:59 86° NNW 18:57:07 10° ENE
Cosmos 1269 Rocket 4.1 18:48:56 10° S 18:54:04 54° ESE 18:59:13 10° NNE
MONITOR-E 4.4 18:52:16 10° SE 18:54:45 36° ENE 18:57:13 10° N
STARLINK-1187 3.0 18:51:43 10° WSW 18:54:50 77° NNW 18:57:59 10° ENE
STARLINK-1188 2.9 18:51:46 10° WSW 18:54:53 85° NNW 18:58:01 10° ENE
STARLINK-1198 2.9 18:51:47 10° WSW 18:54:53 85° NNW 18:58:01 10° ENE
SL-08 ROCKET BODY 4.5 18:49:08 10° N 18:55:18 88° ENE 19:01:21 10° S
STARLINK-1235 3.1 18:52:25 10° WSW 18:55:32 70° NNW 18:58:42 10° ENE
CZ-4C R/B 4.3 18:51:07 10° WNW 18:55:45 26° NNW 19:01:08 10° NE
STARLINK-1199 2.9 18:53:42 10° WSW 18:56:50 82° NNW 19:00:00 10° ENE
STARLINK-1191 2.9 18:54:09 10° WSW 18:57:17 82° NNW 19:00:27 10° ENE
STARLINK-1210 2.9 18:54:37 10° WSW 18:57:44 81° NNW 19:00:54 10° ENE
STARLINK-1221 2.9 18:55:04 10° WSW 18:58:12 81° NNW 19:01:21 10° ENE
STARLINK-1102 4.1 18:54:28 10° WNW 18:58:31 51° NNE 19:02:19 12° E
STARLINK-1219 3.0 18:55:31 10° WSW 18:58:39 80° NNW 19:01:49 10° ENE
STARLINK-1222 3.0 18:55:58 10° WSW 18:59:06 79° NNW 19:02:15 10° ENE
STARLINK-1211 3.0 18:56:25 10° WSW 18:59:33 79° NNW 19:02:42 10° ENE
YAOGAN 1 4.5 18:55:42 10° SSW 18:59:37 33° W 19:03:35 10° NNW
ISS -3.0 18:56:23 10° WNW 18:59:38 44° N 19:02:41 11° E
STARLINK-1214 3.0 18:56:52 10° WSW 19:00:00 78° NNW 19:03:09 10° ENE
STARLINK-1245 3.0 18:57:21 10° WSW 19:00:28 78° NNW 19:03:36 10° ENE
STARLINK-1238 3.0 18:57:44 10° WSW 19:00:52 77° NNW 19:04:01 10° ENE
STARLINK-1269 3.6 18:57:12 10° SW 19:01:15 69° SSE 19:05:20 10° ENE
Cosmos 2297 3.7 18:55:50 10° NNW 19:01:32 77° ENE 19:07:14 10° SSE
STARLINK-1094 3.8 18:57:39 10° WNW 19:01:41 67° SSW 19:05:32 11° SE
STARLINK-1205 3.0 18:58:39 10° WSW 19:01:46 76° NNW 19:04:54 10° ENE
Cosmos 1455 Rocket 3.0 18:57:37 10° S 19:01:57 76° E 19:06:19 10° NNE
BREEZE-M DEB (TANK) 4.4 18:52:36 10° W 19:02:10 71° N 19:05:20 11° E
STARLINK-1204 3.0 18:59:09 10° WSW 19:02:16 76° NNW 19:05:23 10° ENE
Cosmos 2084 Rocket 4.4 18:59:18 10° NNW 19:03:25 35° NE 19:06:58 13° E
STARLINK-1111 4.1 18:59:28 10° WNW 19:03:32 53° NNE 19:07:06 13° E
S3M 4.2 18:59:30 10° S 19:05:54 81° W 19:12:21 10° N
STARLINK-1200 3.5 19:02:00 10° SW 19:06:04 74° SSE 19:10:09 10° ENE
STARLINK-1117 3.9 19:02:19 10° WNW 19:06:21 63° SSW 19:10:00 12° SE
Cosmos 2237 Rocket 2.8 19:01:00 10° SW 19:06:33 61° WNW 19:12:10 10° NNE
Cosmos 1892 Rocket 4.3 19:04:07 10° NNW 19:08:32 59° W 19:12:55 10° S
STARLINK-1073 4.0 19:04:28 10° WNW 19:08:32 55° NNE 19:11:54 15° E
CZ-2C R/B 3.7 19:04:56 10° NE 19:08:58 23° E 19:12:59 10° SE
Cosmos 1626 Rocket 3.7 19:05:02 10° N 19:09:21 51° ENE 19:13:36 10° SSE
Cosmos 1805 4.2 19:06:22 10° SSW 19:10:12 51° WNW 19:14:02 10° N
STARLINK-1192 3.5 19:06:45 10° SW 19:10:49 79° SSE 19:14:54 10° ENE
STARLINK-1078 4.0 19:06:57 10° WNW 19:10:58 58° SW 19:14:28 13° SE
Cosmos 2278 Rocket 4.2 19:07:24 10° NW 19:12:15 30° WSW 19:17:06 10° SSW
STARLINK-1121 4.0 19:09:25 10° WNW 19:13:31 57° NNE 19:16:39 16° E
STARLINK-1108 4.1 19:11:39 10° WNW 19:15:37 54° SW 19:18:58 14° SE
STARLINK-1244 3.5 19:11:39 10° WSW 19:15:44 84° SSE 19:19:50 10° ENE
ARGOS 3.1 19:10:37 10° SSE 19:16:00 78° ENE 19:21:25 10° NNW
Cosmos 1602 Rocket 3.8 19:13:00 10° N 19:17:21 49° ENE 19:21:39 10° SSE
STARLINK-1106 3.9 19:14:23 10° WNW 19:18:29 60° NNE 19:21:25 18° E
STARLINK-1071 4.2 19:16:18 10° WNW 19:20:16 51° SW 19:23:27 15° SE
STARLINK-1138 3.5 19:16:14 10° WSW 19:20:20 88° SE 19:24:27 10° ENE
STARLINK-1234 3.7 19:18:28 10° W 19:21:20 46° NNW 19:24:01 11° NE
Cosmos 494 Rocket 4.4 19:17:21 10° SSW 19:22:27 66° WNW 19:27:39 10° NNE
USA 186 2.1 19:19:50 10° S 19:23:16 74° WSW 19:26:39 10° NNW
MOS 1 Rocket 4.3 19:18:48 10° NNE 19:23:27 31° E 19:28:13 10° SSE
STARLINK-1112 3.8 19:19:23 10° WNW 19:23:31 63° NNE 19:26:14 20° E
Meteor 1-24 Rocket 4.3 19:18:43 10° NNW 19:24:09 58° W 19:29:24 10° S
STARLINK-1110 4.3 19:20:48 10° WNW 19:24:43 47° SW 19:27:43 16° SSE
STARLINK-1143 3.6 19:21:08 10° WSW 19:25:14 87° NNW 19:29:16 10° ENE
STARLINK-1124 4.4 19:22:11 10° WNW 19:26:10 47° SW 19:29:13 16° SSE
MetOp-A 4.3 19:21:30 10° SSE 19:26:43 56° ENE 19:31:58 10° N
CZ-2C R/B 3.1 19:23:23 10° S 19:28:26 79° WSW 19:33:19 10° NNW
STARLINK-1128 3.8 19:24:22 10° WNW 19:28:30 66° NNE 19:31:01 22° E
Cosmos 1544 Rocket 3.8 19:25:09 10° SSW 19:29:32 75° W 19:34:00 10° N
Cosmos 1470 2.6 19:27:41 10° S 19:31:33 74° E 19:35:27 10° NNE
Cosmos 1437 4.2 19:29:16 10° NNE 19:31:25 19° ENE 19:31:25 19° ENE
STARLINK-1113 3.7 19:29:20 10° WNW 19:33:29 69° NNE 19:35:47 25° ESE
STARLINK-1241 3.6 19:29:31 10° WSW 19:33:34 79° NNW 19:37:13 13° ENE
SPOT 3 Rocket 3.5 19:29:58 10° SSE 19:35:09 72° ENE 19:40:23 10° N
Cosmos 1825 Rocket 4.4 19:32:21 10° N 19:36:21 32° ENE 19:37:53 25° ESE
IRIDIUM 103 4.4 19:32:03 10° N 19:37:13 57° E 19:42:01 12° SSE
STARLINK-1119 3.7 19:34:19 10° WNW 19:38:28 73° NNE 19:40:35 28° ESE
STARLINK-1239 3.7 19:34:26 10° WSW 19:38:29 75° NNW 19:41:56 14° ENE
Cosmos 2369 Rocket 2.5 19:34:18 10° NNW 19:39:54 52° NE 19:43:14 24° SE
SJ-6B 3.3 19:37:18 10° S 19:41:22 66° W 19:45:29 10° NNW
STARLINK-1240 3.8 19:39:09 10° WSW 19:43:12 71° NNW 19:46:29 15° ENE
Cosmos 1726 2.8 19:42:56 31° ESE 19:43:21 32° E 19:46:43 10° NNE
STARLINK-1114 3.6 19:39:20 10° WNW 19:43:29 77° NNE 19:45:24 31° ESE
Ariane Rocket 4.2 19:39:40 10° S 19:44:28 42° W 19:49:19 10° NNW
Aureole 2 Rocket 2.8 19:41:43 10° NNW 19:45:06 45° ENE 19:45:56 37° ESE
Cosmos 1758 3.4 19:41:26 10° S 19:45:32 85° W 19:49:39 10° N
Cosmos 1758 Rocket 3.9 19:41:59 10° N 19:46:12 45° ENE 19:47:54 30° SE
STARLINK-1216 3.8 19:43:55 10° WSW 19:47:57 68° NNW 19:51:03 17° ENE
NOSS 3-3 (A) 4.3 19:43:03 10° S 19:48:19 37° ESE 19:54:10 10° NE
NOSS 3-3 (C) 4.3 19:43:10 10° S 19:48:26 36° ESE 19:54:16 10° NE
STARLINK-1130 (DARKSAT) 3.6 19:44:18 10° WNW 19:48:27 81° NNE 19:50:10 35° ESE
CZ-2C R/B 3.7 19:44:29 10° NNE 19:49:17 79° ESE 19:53:59 10° S
STARLINK-1209 4.2 19:48:41 10° W 19:51:24 33° NNW 19:52:48 21° NE
Cosmos 1953 Rocket 4.4 19:48:37 10° N 19:52:38 32° ENE 19:53:22 30° E
STARLINK-1237 3.9 19:48:43 10° WSW 19:52:45 64° NNW 19:55:38 18° ENE
STARLINK-1084 3.5 19:49:16 10° WNW 19:53:26 86° NNE 19:54:56 38° ESE
STARLINK-1228 4.2 19:50:55 10° W 19:53:34 32° NNW 19:54:50 22° NE
Terra 3.9 19:53:53 12° ENE 19:54:18 12° NE 19:56:14 10° NNE
Cosmos 2184 Rocket 4.0 19:49:03 10° N 19:55:21 64° ENE 19:59:37 21° SSE
IRIDIUM 106 4.2 19:50:17 10° N 19:55:33 81° E 20:00:12 13° S
Spot 2 Rocket 4.1 19:55:41 30° ESE 19:57:21 38° ENE 20:02:04 10° N
STARLINK-1202 4.0 19:53:29 10° WSW 19:57:30 61° NNW 20:00:11 20° NE
STARLINK-1098 3.5 19:54:15 10° WNW 19:58:25 89° SSW 19:59:43 43° ESE
Cosmos 1606 Rocket 4.0 19:59:07 37° ESE 19:59:33 38° E 20:03:41 10° NNE
Cosmos 1943 Rocket 2.1 19:55:49 10° NNW 20:01:23 88° WSW 20:04:35 27° SSE
Meteor 1-21 Rocket 4.1 19:56:17 10° NNW 20:01:53 88° W 20:06:07 18° S
STARLINK-1123 3.5 19:59:14 10° WNW 20:03:24 84° SSW 20:04:30 48° SE
Cosmos 1943 3.6 20:01:04 24° SSE 20:03:39 37° ESE 20:08:51 10° NE
STARLINK-1246 4.1 20:00:43 10° W 20:04:45 57° NNW 20:07:11 22° NE
STARLINK-67 4.3 20:02:41 10° WNW 20:04:54 25° N 20:05:16 24° N
SL-8 R/B 3.6 20:01:06 10° W 20:05:54 90° W 20:07:35 41° ESE
Meteor 2-10 4.1 20:00:43 10° S 20:05:55 64° E 20:11:25 10° NNE
STARLINK-1201 4.3 20:04:24 10° W 20:07:30 37° NNW 20:08:41 27° NNE
STARLINK-1097 3.5 20:04:12 10° WNW 20:08:21 79° SSW 20:09:16 53° SE
Resurs 1-3 3.8 20:05:31 22° S 20:08:21 71° WSW 20:12:45 10° NNW
ATLAS 2AS CENTAUR R/B 3.4 20:03:24 10° NW 20:10:50 47° NE 20:14:22 28° E
STARLINK-1224 4.2 20:07:53 10° W 20:11:52 54° NNW 20:13:58 25° NE
STARLINK-1203 4.3 20:09:17 10° W 20:13:10 50° NNW 20:15:06 26° NE
STARLINK-1099 3.6 20:09:12 10° WNW 20:13:20 74° SSW 20:14:04 57° SSE
H-2A R/B 3.9 20:10:37 10° SSW 20:15:12 29° W 20:19:44 10° NW
USA 234 3.2 20:09:26 10° NE 20:16:02 85° SE 20:22:35 10° SW
Cosmos 2154 Rocket 4.1 20:10:08 10° N 20:16:27 60° ENE 20:19:00 36° SE
STARLINK-1225 4.3 20:12:29 10° W 20:16:29 52° NNW 20:18:23 27° NE
USA 245 4.3 20:15:17 42° ESE 20:16:33 51° ENE 20:22:13 10° N
Aureole 3 4.1 20:13:26 10° SSW 20:17:27 62° WNW 20:22:38 10° N
Resurs 01 Rocket 1.6 20:16:28 36° S 20:18:15 79° WSW 20:22:41 10° NNW
STARLINK-1104 3.6 20:14:11 10° WNW 20:18:18 70° SSW 20:18:51 60° SSE
DMSP B5D2-2 4.1 20:13:34 10° NNE 20:18:48 82° WNW 20:24:01 10° SSW
Cosmos 1328 3.8 20:16:31 10° N 20:20:25 60° ENE 20:20:25 60° ENE
STARLINK-1233 4.3 20:17:39 10° WNW 20:20:33 33° N 20:21:02 31° N
STARLINK-1212 4.3 20:18:08 10° WNW 20:21:01 33° N 20:21:27 31° N
SL-16 R/B 3.4 20:15:47 10° SW 20:21:11 44° NW 20:26:37 10° NNE
STARLINK-1230 4.3 20:17:16 10° W 20:21:15 50° NNW 20:22:57 30° NE
STARLINK-1105 4.3 20:18:34 10° WNW 20:21:27 33° N 20:21:53 31° N
STARLINK-1206 4.3 20:19:04 10° WNW 20:21:56 32° N 20:22:19 31° N
STARLINK-1247 4.3 20:19:31 10° WNW 20:22:23 32° N 20:22:44 31° N
Cosmos 2228 2.9 20:22:39 61° E 20:22:39 61° E 20:26:54 10° NNE
Abrixas rocket 4.2 20:19:49 10° WSW 20:20:46 18° SW 20:20:46 18° SW
STARLINK-1227 4.3 20:19:56 10° WNW 20:22:49 32° N 20:23:12 31° N
STARLINK-1218 4.3 20:20:26 10° WNW 20:23:17 32° N 20:23:36 31° N
STARLINK-1144 3.6 20:19:11 10° WNW 20:23:17 65° SSW 20:23:38 61° S
Cosmos 967 Rocket 4.5 20:17:13 10° SSW 20:23:31 58° ESE 20:29:52 10° NE
STARLINK-1226 4.4 20:20:52 10° WNW 20:23:44 32° N 20:24:03 31° N
STARLINK-1254 4.4 20:21:17 10° WNW 20:24:11 32° N 20:24:30 31° N
STARLINK-1215 4.4 20:21:47 10° WNW 20:24:39 32° N 20:24:54 31° N
STARLINK-1231 4.4 20:22:13 10° WNW 20:25:05 32° N 20:25:19 31° N
STARLINK-1232 4.4 20:23:08 10° WNW 20:26:00 32° N 20:26:12 31° N
STARLINK-1243 4.4 20:22:22 10° W 20:26:20 48° NNW 20:27:50 32° NE
STARLINK-1217 4.4 20:23:36 10° WNW 20:26:27 32° N 20:26:38 31° N
Cosmos 1953 3.0 20:23:07 13° SSW 20:26:35 54° WNW 20:30:31 10° N
STARLINK-1208 4.4 20:24:01 10° WNW 20:26:54 32° N 20:27:06 32° N
STARLINK-1229 4.4 20:24:30 10° WNW 20:27:21 31° N 20:27:29 31° N
STARLINK-1271 4.4 20:24:57 10° WNW 20:27:48 31° N 20:27:56 31° N
STARLINK-1103 3.7 20:24:09 10° WNW 20:28:15 60° SW 20:28:25 60° SSW
STARLINK-1270 4.4 20:25:25 10° WNW 20:28:16 31° N 20:28:22 31° N
STARLINK-1154 4.4 20:25:52 10° WNW 20:28:43 31° N 20:28:48 31° N
STARLINK-1197 4.5 20:26:47 10° WNW 20:29:38 31° N 20:29:40 31° N
STARLINK-1189 4.5 20:27:14 10° WNW 20:30:05 31° N 20:30:06 31° N
STARLINK-1236 4.4 20:26:57 10° W 20:30:54 47° NNW 20:32:12 34° NE
STARLINK-1198 4.5 20:28:08 10° WNW 20:30:57 31° N 20:30:57 31° N
STARLINK-1188 4.5 20:28:09 10° WNW 20:30:58 31° N 20:30:58 31° N
Cosmos 1992 Rocket 4.3 20:25:54 10° NNW 20:31:03 63° WSW 20:33:07 35° S
STARLINK-1101 3.9 20:29:09 10° WNW 20:33:12 56° SW 20:33:12 56° SW
Nadezhda 1 Rocket 3.9 20:29:47 27° S 20:33:29 74° E 20:39:53 10° NNE
ISS -2.6 20:33:14 10° WNW 20:35:39 42° W 20:35:39 42° W
STARLINK-1102 4.1 20:34:07 10° WNW 20:37:58 51° SW 20:37:58 51° SW
Cosmos 2058 Rocket 3.9 20:42:37 39° NE 20:42:37 39° NE 20:45:43 10° NNE
MetOp-B 4.1 20:40:10 49° S 20:41:42 82° WSW 20:47:06 10° NNW
Cosmos 1603 3.6 20:37:09 10° SSW 20:42:47 90° ESE 20:48:27 10° NNE
Cosmos 2084 Rocket 4.3 20:38:47 10° NW 20:43:00 41° WSW 20:43:30 40° SW
STARLINK-1111 4.3 20:39:08 10° WNW 20:42:45 46° SW 20:42:45 46° SW
SPOT 5 3.7 20:44:26 33° NE 20:44:26 33° NE 20:47:33 10° N
Cosmos 2251 Rocket 3.9 20:38:24 10° SSW 20:43:43 65° WNW 20:49:06 10° NNE
Cosmos 1703 3.5 20:40:08 10° NNW 20:43:49 68° WNW 20:43:49 68° WNW
Meteor 1-16 Rocket 4.2 20:40:19 20° SSW 20:44:07 74° WNW 20:49:36 10° N
STARLINK-1073 4.5 20:44:09 10° WNW 20:47:33 42° WSW 20:47:33 42° WSW
IGS 5A 3.9 20:49:02 56° NNE 20:49:02 56° NNE 20:52:26 10° N
ERS-1 Rocket 3.2 20:48:38 53° ENE 20:48:38 53° ENE 20:53:20 10° N
Landsat 7 3.7 20:49:40 78° ENE 20:49:40 78° ENE 20:54:23 10° N
CZ-2C R/B 3.2 20:44:33 10° N 20:49:37 54° WNW 20:54:38 10° SW
Cosmos 1656 Rocket 3.6 20:55:52 10° NNW 21:01:34 81° WSW 21:02:03 74° S
Meteor 1-11 4.3 20:57:39 10° NNW 21:03:26 73° W 21:04:29 58° SSW
Aureole 1 Rocket 4.2 21:01:51 44° S 21:04:29 70° ESE 21:11:03 10° NNE
Cosmos 1726 Rocket 4.3 21:10:43 50° WNW 21:10:43 50° WNW 21:15:03 10° N
COSMOS 2455 3.2 21:09:11 10° NNW 21:15:02 50° NE 21:15:09 50° NE
Cosmos 2341 Rocket 3.9 21:15:44 10° N 21:22:07 82° W 21:22:43 73° SSW
Cosmos 1461 4.3 21:17:51 10° NNW 21:20:56 37° N 21:20:56 37° N
Cosmos 2369 Rocket 3.7 21:18:51 10° NW 21:23:38 28° WSW 21:25:03 25° SW
NOSS 3-4 (A) 3.7 21:22:29 10° NW 21:29:28 88° SW 21:30:09 76° SSE
NOSS 3-4 (C) 3.7 21:22:34 10° NW 21:29:34 88° SW 21:30:14 76° SSE
Terra 2.8 21:32:46 44° N 21:32:46 44° N 21:36:02 10° NNW
SPOT 1/Viking Rocket 4.4 21:41:28 44° W 21:41:28 44° W 21:46:10 10° NNW
Cosmos 1943 Rocket 4.5 21:41:27 10° WNW 21:44:17 14° W 21:46:08 12° WSW
Cosmos 1943 4.3 21:42:22 10° WSW 21:47:41 41° NW 21:53:04 10° NNE
Cosmos 2218 Rocket 4.1 21:43:00 10° N 21:48:36 73° NW 21:48:36 73° NW
USA 234 4.0 21:52:34 10° NE 21:58:47 48° NNW 22:05:00 10° W
Cosmos 2181 Rocket 4.2 22:00:16 65° WNW 22:00:16 65° WNW 22:06:09 10° N
ATLAS 2AS CENTAUR R/B 3.1 21:54:41 10° NW 22:01:48 56° WSW 22:01:48 56° WSW
Cosmos 1697 Rocket 4.2 22:06:16 10° NNW 22:10:12 28° NNE 22:10:12 28° NNE
Mayak 1.5 22:14:52 10° N 22:15:31 14° N 22:15:31 14° N
Cosmos 1980 Rocket 3.9 22:31:53 10° N 22:35:28 25° NNE 22:35:28 25° NNE
CZ-4C R/B 4.0 22:31:03 10° NNW 22:37:11 35° NNE 22:38:44 32° NE
ATLAS 5 CENTAUR R/B 4.4 23:20:05 15° NNE 23:20:05 15° NNE 23:21:01 10° NNE
USA 234 4.3 23:35:04 10° ENE 23:41:03 40° N 23:47:01 10° WNW
SL-16 R/B 4.2 23:52:44 24° ENE 23:52:57 25° ENE 23:57:49 10° N
